Time,TemperatureF,DewpointF,PressureIn,WindDirection,WindDirectionDegrees,WindSpeedMPH,WindSpeedGustMPH,Humidity,HourlyPrecipIn,Conditions,Clouds,dailyrainin,SoftwareType,DateUTC
2013-03-05 00:01:00,52.0,44.0,30.13,East,93,7.0,10.0,73,0.00,,,0.00,,2013-03-05 08:01:00,
2013-03-05 00:11:00,52.0,44.0,30.13,East,93,7.0,10.0,73,0.00,,,0.00,,2013-03-05 08:11:00,
2013-03-05 00:21:00,52.0,44.0,30.13,East,80,4.0,10.0,73,0.00,,,0.00,,2013-03-05 08:21:00,
2013-03-05 00:31:00,49.0,42.0,30.14,WNW,287,1.0,7.0,76,0.00,,,0.00,,2013-03-05 08:31:00,
2013-03-05 00:41:00,49.0,42.0,30.14,WNW,287,1.0,7.0,76,0.00,,,0.00,,2013-03-05 08:41:00,
2013-03-05 00:52:00,47.0,42.0,30.13,SE,126,6.0,7.0,83,0.00,,,0.00,,2013-03-05 08:52:00,
2013-03-05 01:01:00,47.0,42.0,30.13,ENE,73,10.0,11.0,83,0.00,,,0.00,,2013-03-05 09:01:00,
2013-03-05 01:11:00,47.0,42.0,30.13,ENE,73,10.0,11.0,83,0.00,,,0.00,,2013-03-05 09:11:00,
2013-03-05 01:21:00,47.0,42.0,30.12,East,89,9.0,14.0,84,0.00,,,0.00,,2013-03-05 09:21:00,
2013-03-05 01:31:00,49.0,43.0,30.12,East,97,5.0,11.0,81,0.00,,,0.00,,2013-03-05 09:31:00,
2013-03-05 01:42:00,49.0,43.0,30.12,East,97,5.0,11.0,81,0.00,,,0.00,,2013-03-05 09:42:00,
2013-03-05 01:52:00,50.0,44.0,30.12,ENE,75,2.0,5.0,80,0.00,,,0.00,,2013-03-05 09:52:00,
2013-03-05 02:01:00,50.0,44.0,30.12,ENE,75,1.0,3.0,79,0.00,,,0.00,,2013-03-05 10:01:00,
2013-03-05 02:11:00,50.0,44.0,30.12,ENE,75,1.0,3.0,79,0.00,,,0.00,,2013-03-05 10:11:00,
2013-03-05 02:21:00,50.0,44.0,30.11,ENE,75,3.0,5.0,79,0.00,,,0.00,,2013-03-05 10:21:00,
2013-03-05 02:32:00,50.0,44.0,30.12,SE,136,5.0,7.0,79,0.00,,,0.00,,2013-03-05 10:32:00,
2013-03-05 02:41:00,50.0,44.0,30.12,SE,136,5.0,7.0,79,0.00,,,0.00,,2013-03-05 10:41:00,
2013-03-05 02:52:00,45.0,43.0,30.12,SE,142,10.0,13.0,91,0.00,,,0.00,,2013-03-05 10:52:00,
2013-03-05 03:01:00,45.0,44.0,30.12,ESE,111,9.0,13.0,95,0.00,,,0.00,,2013-03-05 11:01:00,
2013-03-05 03:11:00,45.0,44.0,30.12,ESE,111,9.0,13.0,95,0.00,,,0.00,,2013-03-05 11:11:00,
2013-03-05 03:21:00,45.0,44.0,30.12,ENE,69,8.0,11.0,95,0.00,,,0.00,,2013-03-05 11:21:00,
2013-03-05 03:32:00,45.0,44.0,30.12,ENE,69,8.0,11.0,95,0.00,,,0.00,,2013-03-05 11:32:00,
2013-03-05 03:41:00,45.0,44.0,30.12,ENE,69,8.0,11.0,95,0.00,,,0.00,,2013-03-05 11:41:00,
2013-03-05 03:52:00,45.0,44.0,30.12,NE,55,6.0,9.0,96,0.00,,,0.00,,2013-03-05 11:52:00,
2013-03-05 04:02:00,46.0,45.0,30.12,ENE,59,6.0,9.0,97,0.00,,,0.00,,2013-03-05 12:02:00,
2013-03-05 04:11:00,46.0,45.0,30.12,ENE,59,6.0,9.0,97,0.00,,,0.00,,2013-03-05 12:11:00,
2013-03-05 04:22:00,46.0,45.0,30.12,ENE,64,2.0,5.0,97,0.00,,,0.00,,2013-03-05 12:22:00,
2013-03-05 04:32:00,46.0,45.0,30.12,ENE,62,2.0,5.0,97,0.00,,,0.00,,2013-03-05 12:32:00,
2013-03-05 04:42:00,46.0,45.0,30.12,ENE,62,2.0,5.0,97,0.00,,,0.00,,2013-03-05 12:42:00,
2013-03-05 04:52:00,46.0,45.0,30.12,ENE,62,0.0,3.0,97,0.00,,,0.00,,2013-03-05 12:52:00,
2013-03-05 05:01:00,46.0,45.0,30.11,ENE,74,6.0,9.0,97,0.00,,,0.00,,2013-03-05 13:01:00,
2013-03-05 05:11:00,46.0,45.0,30.11,ENE,74,6.0,9.0,97,0.00,,,0.00,,2013-03-05 13:11:00,
2013-03-05 05:21:00,45.0,44.0,30.12,ENE,66,4.0,8.0,97,0.00,,,0.00,,2013-03-05 13:21:00,
2013-03-05 05:31:00,45.0,44.0,30.12,ENE,58,5.0,8.0,97,0.00,,,0.00,,2013-03-05 13:31:00,
2013-03-05 05:42:00,45.0,44.0,30.12,ENE,58,5.0,8.0,97,0.00,,,0.00,,2013-03-05 13:42:00,
2013-03-05 05:52:00,45.0,44.0,30.12,ENE,69,9.0,12.0,97,0.00,,,0.00,,2013-03-05 13:52:00,
2013-03-05 06:02:00,45.0,44.0,30.12,ENE,74,7.0,9.0,98,0.00,,,0.00,,2013-03-05 14:02:00,
2013-03-05 06:11:00,45.0,44.0,30.12,ENE,74,7.0,9.0,98,0.00,,,0.00,,2013-03-05 14:11:00,
2013-03-05 06:21:00,45.0,44.0,30.12,East,84,9.0,11.0,98,0.00,,,0.00,,2013-03-05 14:21:00,
2013-03-05 06:31:00,45.0,44.0,30.12,ESE,104,9.0,12.0,98,0.00,,,0.00,,2013-03-05 14:31:00,
2013-03-05 06:41:00,45.0,44.0,30.12,ESE,104,9.0,12.0,98,0.00,,,0.00,,2013-03-05 14:41:00,
2013-03-05 06:52:00,45.0,44.0,30.12,ESE,107,8.0,14.0,98,0.00,,,0.00,,2013-03-05 14:52:00,
2013-03-05 07:01:00,45.0,44.0,30.12,ESE,109,6.0,10.0,97,0.00,,,0.00,,2013-03-05 15:01:00,
2013-03-05 07:11:00,45.0,44.0,30.12,ESE,109,6.0,10.0,97,0.00,,,0.00,,2013-03-05 15:11:00,
2013-03-05 07:21:00,44.0,43.0,30.12,East,94,10.0,13.0,98,0.00,,,0.00,,2013-03-05 15:21:00,
2013-03-05 07:31:00,44.0,43.0,30.13,ENE,68,6.0,11.0,98,0.00,,,0.00,,2013-03-05 15:31:00,
2013-03-05 07:42:00,44.0,43.0,30.13,ENE,68,6.0,11.0,98,0.00,,,0.00,,2013-03-05 15:42:00,
2013-03-05 07:52:00,44.0,43.0,30.13,ENE,69,7.0,11.0,98,0.00,,,0.00,,2013-03-05 15:52:00,
2013-03-05 08:01:00,44.0,43.0,30.13,ENE,69,9.0,13.0,98,0.00,,,0.00,,2013-03-05 16:01:00,
2013-03-05 08:11:00,44.0,43.0,30.13,ENE,69,9.0,13.0,98,0.00,,,0.00,,2013-03-05 16:11:00,
2013-03-05 08:21:00,45.0,44.0,30.14,ENE,74,7.0,10.0,98,0.00,,,0.00,,2013-03-05 16:21:00,
2013-03-05 08:31:00,45.0,44.0,30.14,ENE,76,5.0,9.0,98,0.00,,,0.00,,2013-03-05 16:31:00,
2013-03-05 08:41:00,45.0,44.0,30.14,ENE,76,5.0,9.0,98,0.00,,,0.00,,2013-03-05 16:41:00,
2013-03-05 08:52:00,45.0,44.0,30.15,ENE,59,5.0,11.0,98,0.00,,,0.00,,2013-03-05 16:52:00,
2013-03-05 09:01:00,45.0,44.0,30.15,ENE,62,5.0,9.0,98,0.00,,,0.00,,2013-03-05 17:01:00,
2013-03-05 09:11:00,45.0,44.0,30.15,ENE,62,5.0,9.0,98,0.00,,,0.00,,2013-03-05 17:11:00,
2013-03-05 09:21:00,46.0,45.0,30.16,ENE,63,2.0,7.0,98,0.00,,,0.00,,2013-03-05 17:21:00,
2013-03-05 09:32:00,46.0,45.0,30.16,ESE,112,2.0,9.0,98,0.00,,,0.00,,2013-03-05 17:32:00,
2013-03-05 09:41:00,46.0,45.0,30.16,ESE,112,2.0,9.0,98,0.00,,,0.00,,2013-03-05 17:41:00,
2013-03-05 09:52:00,46.0,45.0,30.16,SE,138,1.0,6.0,98,0.00,,,0.00,,2013-03-05 17:52:00,
2013-03-05 10:01:00,47.0,46.0,30.16,SSE,150,0.0,6.0,98,0.00,,,0.00,,2013-03-05 18:01:00,
2013-03-05 10:11:00,47.0,46.0,30.16,SSE,150,0.0,6.0,98,0.00,,,0.00,,2013-03-05 18:11:00,
2013-03-05 10:21:00,47.0,46.0,30.16,ESE,119,4.0,7.0,97,0.00,,,0.00,,2013-03-05 18:21:00,
2013-03-05 10:31:00,47.0,46.0,30.16,ESE,119,4.0,7.0,97,0.00,,,0.00,,2013-03-05 18:31:00,
2013-03-05 10:41:00,47.0,46.0,30.16,ESE,119,4.0,7.0,97,0.00,,,0.00,,2013-03-05 18:41:00,
2013-03-05 10:53:00,48.0,47.0,30.15,East,93,2.0,7.0,97,0.00,,,0.00,,2013-03-05 18:53:00,
2013-03-05 11:01:00,49.0,48.0,30.15,ESE,123,5.0,9.0,96,0.00,,,0.00,,2013-03-05 19:01:00,
2013-03-05 11:11:00,49.0,48.0,30.15,ESE,123,5.0,9.0,96,0.00,,,0.00,,2013-03-05 19:11:00,
2013-03-05 11:21:00,50.0,48.0,30.14,SE,128,8.0,12.0,92,0.00,,,0.00,,2013-03-05 19:21:00,
2013-03-05 11:31:00,51.0,47.0,30.14,SE,129,8.0,12.0,87,0.00,,,0.00,,2013-03-05 19:31:00,
2013-03-05 11:41:00,51.0,47.0,30.14,SE,129,8.0,12.0,87,0.00,,,0.00,,2013-03-05 19:41:00,
2013-03-05 11:52:00,53.0,48.0,30.14,ESE,114,2.0,10.0,84,0.00,,,0.00,,2013-03-05 19:52:00,
2013-03-05 12:01:00,56.0,48.0,30.13,SSE,159,6.0,8.0,75,0.00,,,0.00,,2013-03-05 20:01:00,
2013-03-05 12:11:00,53.0,48.0,30.12,SE,138,7.0,11.0,83,0.00,,,0.00,,2013-03-05 20:11:00,
2013-03-05 12:21:00,53.0,48.0,30.12,SE,138,7.0,11.0,83,0.00,,,0.00,,2013-03-05 20:21:00,
2013-03-05 12:32:00,54.0,49.0,30.12,SSW,202,7.0,15.0,83,0.00,,,0.00,,2013-03-05 20:32:00,
2013-03-05 12:41:00,54.0,49.0,30.12,SSW,202,7.0,15.0,83,0.00,,,0.00,,2013-03-05 20:41:00,
2013-03-05 12:52:00,54.0,49.0,30.12,SSE,155,4.0,12.0,83,0.00,,,0.00,,2013-03-05 20:52:00,
2013-03-05 13:01:00,51.0,47.0,30.12,SSE,163,5.0,12.0,86,0.00,,,0.00,,2013-03-05 21:01:00,
2013-03-05 13:11:00,51.0,47.0,30.12,SSE,163,5.0,12.0,86,0.00,,,0.00,,2013-03-05 21:11:00,
2013-03-05 13:21:00,49.0,47.0,30.12,SSE,158,2.0,10.0,92,0.00,,,0.00,,2013-03-05 21:21:00,
2013-03-05 13:31:00,48.0,46.0,30.12,SSE,150,2.0,7.0,93,0.00,,,0.00,,2013-03-05 21:31:00,
2013-03-05 13:41:00,48.0,46.0,30.12,SSE,150,2.0,7.0,93,0.00,,,0.00,,2013-03-05 21:41:00,
2013-03-05 13:52:00,48.0,46.0,30.11,SE,144,3.0,9.0,93,0.00,,,0.00,,2013-03-05 21:52:00,
2013-03-05 14:01:00,47.0,45.0,30.11,SSE,150,1.0,6.0,94,0.00,,,0.00,,2013-03-05 22:01:00,
2013-03-05 14:11:00,47.0,45.0,30.11,SSE,150,1.0,6.0,94,0.00,,,0.00,,2013-03-05 22:11:00,
2013-03-05 14:21:00,48.0,47.0,30.11,South,190,0.0,4.0,95,0.00,,,0.00,,2013-03-05 22:21:00,
2013-03-05 14:31:00,47.0,45.0,30.10,SW,231,0.0,5.0,94,0.00,,,0.00,,2013-03-05 22:31:00,
2013-03-05 14:41:00,47.0,45.0,30.10,SW,231,0.0,5.0,94,0.00,,,0.00,,2013-03-05 22:41:00,
2013-03-05 14:52:00,46.0,45.0,30.09,West,262,4.0,9.0,95,0.00,,,0.00,,2013-03-05 22:52:00,
2013-03-05 15:01:00,46.0,45.0,30.09,SW,217,5.0,7.0,96,0.00,,,0.00,,2013-03-05 23:01:00,
2013-03-05 15:11:00,46.0,45.0,30.09,SW,217,5.0,7.0,96,0.00,,,0.00,,2013-03-05 23:11:00,
2013-03-05 15:21:00,46.0,45.0,30.09,NW,310,3.0,8.0,97,0.00,,,0.00,,2013-03-05 23:21:00,
2013-03-05 15:32:00,46.0,45.0,30.09,WNW,300,1.0,7.0,97,0.00,,,0.00,,2013-03-05 23:32:00,
2013-03-05 15:41:00,46.0,45.0,30.09,WNW,300,1.0,7.0,97,0.00,,,0.00,,2013-03-05 23:41:00,
2013-03-05 15:52:00,46.0,45.0,30.09,WNW,297,2.0,6.0,97,0.00,,,0.00,,2013-03-05 23:52:00,
2013-03-05 16:01:00,46.0,45.0,30.09,West,275,0.0,6.0,97,0.00,,,0.00,,2013-03-06 00:01:00,
2013-03-05 16:11:00,46.0,45.0,30.09,West,275,0.0,6.0,97,0.00,,,0.00,,2013-03-06 00:11:00,
2013-03-05 16:21:00,46.0,45.0,30.09,WNW,289,0.0,0.0,97,0.00,,,0.00,,2013-03-06 00:21:00,
2013-03-05 16:32:00,46.0,45.0,30.09,WNW,289,0.0,0.0,97,0.00,,,0.00,,2013-03-06 00:32:00,
2013-03-05 16:41:00,46.0,45.0,30.09,WNW,289,0.0,0.0,97,0.00,,,0.00,,2013-03-06 00:41:00,
2013-03-05 16:52:00,46.0,45.0,30.09,West,264,1.0,4.0,97,0.00,,,0.00,,2013-03-06 00:52:00,
2013-03-05 17:01:00,46.0,45.0,30.08,WSW,250,0.0,5.0,97,0.00,,,0.00,,2013-03-06 01:01:00,
2013-03-05 17:11:00,46.0,45.0,30.08,WSW,250,0.0,5.0,97,0.00,,,0.00,,2013-03-06 01:11:00,
2013-03-05 17:21:00,46.0,45.0,30.08,South,178,0.0,3.0,97,0.00,,,0.00,,2013-03-06 01:21:00,
2013-03-05 17:31:00,46.0,45.0,30.09,SSE,151,4.0,7.0,97,0.00,,,0.00,,2013-03-06 01:31:00,
2013-03-05 17:41:00,46.0,45.0,30.09,SSE,151,4.0,7.0,97,0.00,,,0.00,,2013-03-06 01:41:00,
2013-03-05 17:52:00,46.0,45.0,30.09,SSE,163,4.0,8.0,97,0.00,,,0.00,,2013-03-06 01:52:00,
2013-03-05 18:01:00,46.0,45.0,30.09,SSE,148,4.0,9.0,97,0.00,,,0.00,,2013-03-06 02:01:00,
2013-03-05 18:11:00,46.0,45.0,30.09,SSE,148,4.0,9.0,97,0.00,,,0.00,,2013-03-06 02:11:00,
2013-03-05 18:21:00,46.0,45.0,30.09,SE,135,3.0,7.0,97,0.00,,,0.00,,2013-03-06 02:21:00,
2013-03-05 18:31:00,45.0,44.0,30.10,SE,138,2.0,6.0,97,0.00,,,0.00,,2013-03-06 02:31:00,
2013-03-05 18:41:00,45.0,44.0,30.10,SE,138,2.0,6.0,97,0.00,,,0.00,,2013-03-06 02:41:00,
2013-03-05 18:52:00,46.0,45.0,30.11,SSE,159,0.0,4.0,97,0.00,,,0.00,,2013-03-06 02:52:00,
2013-03-05 19:01:00,45.0,44.0,30.12,SSE,159,0.0,5.0,97,0.00,,,0.00,,2013-03-06 03:01:00,
2013-03-05 19:11:00,45.0,44.0,30.12,SSE,159,0.0,5.0,97,0.00,,,0.00,,2013-03-06 03:11:00,
2013-03-05 19:21:00,46.0,45.0,30.12,SSE,159,0.0,0.0,97,0.00,,,0.00,,2013-03-06 03:21:00,
2013-03-05 19:31:00,45.0,44.0,30.12,SSW,196,0.0,4.0,97,0.00,,,0.00,,2013-03-06 03:31:00,
2013-03-05 19:41:00,45.0,44.0,30.12,SSW,196,0.0,4.0,97,0.00,,,0.00,,2013-03-06 03:41:00,
2013-03-05 19:52:00,45.0,44.0,30.12,SW,235,3.0,6.0,97,0.00,,,0.00,,2013-03-06 03:52:00,
2013-03-05 20:01:00,45.0,44.0,30.12,West,262,0.0,4.0,97,0.00,,,0.00,,2013-03-06 04:01:00,
2013-03-05 20:11:00,45.0,44.0,30.12,West,262,0.0,4.0,97,0.00,,,0.00,,2013-03-06 04:11:00,
2013-03-05 20:21:00,45.0,44.0,30.12,West,262,0.0,4.0,97,0.00,,,0.00,,2013-03-06 04:21:00,
2013-03-05 20:31:00,44.0,43.0,30.13,WNW,298,5.0,8.0,97,0.00,,,0.00,,2013-03-06 04:31:00,
2013-03-05 20:41:00,44.0,43.0,30.13,WNW,298,5.0,8.0,97,0.00,,,0.00,,2013-03-06 04:41:00,
2013-03-05 20:52:00,44.0,43.0,30.13,WNW,295,2.0,7.0,97,0.00,,,0.00,,2013-03-06 04:52:00,
2013-03-05 21:01:00,43.0,42.0,30.14,West,259,6.0,9.0,97,0.00,,,0.00,,2013-03-06 05:01:00,
2013-03-05 21:11:00,43.0,42.0,30.14,West,259,6.0,9.0,97,0.00,,,0.00,,2013-03-06 05:11:00,
2013-03-05 21:22:00,43.0,42.0,30.14,WSW,247,6.0,9.0,98,0.00,,,0.00,,2013-03-06 05:22:00,
2013-03-05 21:32:00,43.0,42.0,30.14,West,264,4.0,10.0,98,0.00,,,0.00,,2013-03-06 05:32:00,
2013-03-05 21:42:00,43.0,42.0,30.14,West,264,4.0,10.0,98,0.00,,,0.00,,2013-03-06 05:42:00,
2013-03-05 21:52:00,43.0,42.0,30.15,West,266,9.0,14.0,98,0.00,,,0.00,,2013-03-06 05:52:00,
2013-03-05 22:01:00,43.0,42.0,30.15,SW,232,3.0,10.0,98,0.00,,,0.00,,2013-03-06 06:01:00,
2013-03-05 22:11:00,43.0,42.0,30.15,SW,232,3.0,10.0,98,0.00,,,0.00,,2013-03-06 06:11:00,
2013-03-05 22:22:00,43.0,42.0,30.16,West,262,4.0,7.0,98,0.00,,,0.00,,2013-03-06 06:22:00,
2013-03-05 22:31:00,43.0,42.0,30.15,SW,223,3.0,6.0,98,0.00,,,0.00,,2013-03-06 06:31:00,
2013-03-05 22:41:00,43.0,42.0,30.15,SW,223,3.0,6.0,98,0.00,,,0.00,,2013-03-06 06:41:00,
2013-03-05 22:52:00,43.0,42.0,30.16,WSW,243,4.0,8.0,98,0.00,,,0.00,,2013-03-06 06:52:00,
2013-03-05 23:01:00,43.0,42.0,30.17,WNW,293,3.0,9.0,98,0.00,,,0.00,,2013-03-06 07:01:00,
2013-03-05 23:11:00,43.0,42.0,30.17,WNW,293,3.0,9.0,98,0.00,,,0.00,,2013-03-06 07:11:00,
2013-03-05 23:22:00,43.0,42.0,30.17,West,276,5.0,11.0,98,0.01,,,0.01,,2013-03-06 07:22:00,
2013-03-05 23:31:00,43.0,42.0,30.17,West,276,5.0,11.0,98,0.01,,,0.01,,2013-03-06 07:31:00,
2013-03-05 23:41:00,43.0,42.0,30.17,West,276,5.0,11.0,98,0.01,,,0.01,,2013-03-06 07:41:00,
2013-03-05 23:52:00,43.0,42.0,30.17,West,271,4.0,8.0,98,0.01,,,0.01,,2013-03-06 07:52:00,